Change the Weather History Date:

Tuesday, October 9, 2012

  Actual Average Record
Temperature  
Mean Temperature 73 °F 76 °F  
Max Temperature 81 °F 82 °F 89 °F (2007)
Min Temperature 64 °F 70 °F 49 °F (2000)
Degree Days  
Heating Degree Days 0 0  
Month to date heating degree days 0 0  
Since 1 July heating degree days 0 0  
Cooling Degree Days 8 11  
Month to date cooling degree days 74 111  
Year to date cooling degree days 3520 3004  
Growing Degree Days 22 (Base 50)    
Moisture  
Dew Point 65 °F    
Average Humidity 73    
Maximum Humidity 84    
Minimum Humidity 62    
Precipitation  
Precipitation 0.00 in 0.17 in 4.31 in (2011)
Month to date precipitation 0.01 1.64  
Year to date precipitation 42.98 38.85  
Snow  
Snow 0.00 in - 0.00 in (2002)
Month to date snowfall 0.0  
Since 1 July snowfall 0.0  
Since 1 September snowfall 0.0  
Snow Depth 0.00 in    
Sea Level Pressure  
Sea Level Pressure 30.05 in    
Wind  
Wind Speed 12 mph (SE)    
Max Wind Speed 18 mph    
Max Gust Speed 22 mph    
Visibility 10 miles    
Events      
T = Trace of Precipitation, MM = Missing Value Source: NWS Daily Summary

Daily Weather History Graph

Daily Weather History Graph

Search for Another Location

Airport or City:

Trip Planner

Search our weather history database for the weather conditions in past years. The results will help you decide how hot, cold, wet, or windy it might be!

Date:

Astronomy

Oct. 09, 2012 Rise Set
Actual Time 7:17 AM CDT 6:55 PM CDT
Civil Twilight 6:53 AM CDT 7:18 PM CDT
Nautical Twilight 6:26 AM CDT 7:46 PM CDT
Astronomical Twilight 5:58 AM CDT 8:14 PM CDT
Moon 1:21 AM CDT (10/9) 2:58 PM CDT (10/9)
Length of Visible Light 12h 25m
Length of Day
11h 37m
Last Quarter, 36% of the Moon is Illuminated
Oct 9
Last Quarter
Oct 15
New
Oct 21
First Quarter
Oct 29
Full
Nov 6
Last Quarter

Hourly Weather History & Observations

Time (CDT) Temp. Heat Index Dew Point Humidity Pressure Visibility Wind Dir Wind Speed Gust Speed Precip Events Conditions
12:52 AM 64.0 °F - 57.0 °F 78% 30.11 in 10.0 mi NNE 6.9 mph - N/A   Clear
1:52 AM 64.9 °F - 57.9 °F 78% 30.10 in 10.0 mi NE 8.1 mph - N/A   Mostly Cloudy
2:52 AM 64.9 °F - 59.0 °F 81% 30.09 in 10.0 mi ENE 9.2 mph - N/A   Overcast
3:52 AM 69.1 °F - 63.0 °F 81% 30.07 in 10.0 mi ESE 8.1 mph - N/A   Overcast
4:52 AM 71.1 °F - 62.1 °F 73% 30.07 in 10.0 mi SE 5.8 mph - N/A   Overcast
5:52 AM 71.6 °F - 62.6 °F 73% 30.07 in 10.0 mi ESE 8.1 mph - N/A   Overcast
6:52 AM 72.0 °F - 62.1 °F 71% 30.07 in 10.0 mi ESE 8.1 mph - N/A   Overcast
7:52 AM 73.0 °F - 63.0 °F 71% 30.06 in 10.0 mi ESE 11.5 mph - N/A   Overcast
8:52 AM - - - N/A% 30.08 in - North - - N/A   Unknown
9:52 AM - - - N/A% 30.11 in 10.0 mi ESE 6.9 mph - N/A   Clear
10:52 AM 79.0 °F - 66.0 °F 64% 30.11 in 10.0 mi SE 15.0 mph - N/A   Clear
11:52 AM 79.0 °F - 66.0 °F 64% 30.09 in 10.0 mi SE 13.8 mph - N/A   Clear
12:52 PM 80.1 °F 82.3 °F 66.9 °F 64% 30.06 in 10.0 mi SE 16.1 mph - N/A   Clear
1:52 PM 80.1 °F 82.1 °F 66.0 °F 62% 30.04 in 10.0 mi SE 11.5 mph - N/A   Clear
2:52 PM 79.0 °F - 66.0 °F 64% 30.02 in 10.0 mi SE 12.7 mph - N/A   Mostly Cloudy
3:52 PM 79.0 °F - 66.9 °F 66% 30.00 in 10.0 mi SE 15.0 mph - N/A   Partly Cloudy
4:52 PM 79.0 °F - 66.9 °F 66% 30.00 in 10.0 mi SE 13.8 mph - N/A   Partly Cloudy
5:52 PM 78.1 °F - 68.0 °F 71% 29.99 in 10.0 mi SSE 12.7 mph - N/A   Partly Cloudy
6:52 PM 75.9 °F - 68.0 °F 76% 29.99 in 10.0 mi SSE 11.5 mph - N/A   Scattered Clouds
7:52 PM 75.9 °F - 69.1 °F 79% 30.00 in 10.0 mi SSE 13.8 mph - N/A   Clear
8:52 PM 75.2 °F - 69.8 °F 83% 30.01 in 10.0 mi SSE 12.7 mph - N/A   Clear
9:52 PM 75.9 °F - 69.1 °F 79% 30.01 in 10.0 mi South 16.1 mph - N/A   Clear
10:52 PM 77.0 °F - 70.0 °F 79% 30.02 in 10.0 mi South 15.0 mph - N/A   Partly Cloudy
11:52 PM 77.0 °F - 71.1 °F 82% 30.02 in 10.0 mi South 16.1 mph - N/A   Partly Cloudy